Location: Forst
(46.9333°N, 15.4333°E)
Time: 07:30:17
(UTC+00:00)

Lacrosse 5 rocket - Pass Details

Date: 23 April 2021
Orbit: 460 x 634 km, 57.0° (Epoch: 12 May)

Event Time Altitude Azimuth Distance (km) Brightness Sun altitude
Rises 18:56:59 0° 298° (WNW) 2,700 7.2 -9.9°
Reaches altitude 10° 18:59:36 10° 315° (NW) 1,842 5.5 -10.3°
Maximum altitude 19:02:50 21° 6° (N) 1,306 3.6 -10.8°
Drops below altitude 10° 19:06:12 10° 56° (ENE) 1,924 3.9 -11.3°
Enters shadow 19:08:18 - 70° (ENE) 2,612 4.4 -11.6°
